Погода в Мухоршибири

Россия / Республика Бурятия     51°02′50″N   107°49′25″E
темп.,
°C
ветер,
м/с
пор.,
м/с
влажн.,
%
обл.,
%
осадки,
мм/ч
давл.,
гПа
погр.,
м
14 июня, пн
пн1423:00+9зсз227098 0.0 100830
02:00+8сз1181100 0.0 101018
05:00+7с018688 0.0 101032
08:00+13зсз345881 0.0 1009720
11:00+17сз334197 0.0 10071047
14:00+19зсз3437100 0.0 10061626
17:00+17зюз1143100 0.0 1005996
20:00+15ю225731 0.1 100537
15 июня, вт
вт1523:00+10ю117898 0.0 100714
02:00+9з1179100 0.0 100718
05:00+9зсз3685100 0.0 1009463
08:00+9зсз2587100 0.3 1012485
11:00+8зсз3688100 0.4 1013526
14:00+8сз3680100 0.6 1014884
17:00+10сз1565100 0.1 10131044
20:00+10ссз3657100 0.2 1013720
16 июня, ср
ср1623:00+5зюз11731 0.0 101511
02:00+3ююз11805 0.0 101512
05:00+3ююз118331 0.0 101615
08:00+9сз35572 0.0 1014958
11:00+14сз564077 0.0 10122109
14:00+15сз673881 0.0 10112309
17:00+13зсз564065 0.0 10102060
20:00+10сз47577 0.0 1011686
17 июня, чт
чт1723:00+4зюз229434 0.1 101440
02:00+5з279197 0.1 1013463
05:00+5з2888100 0.0 1014478
08:00+8зсз587277 0.0 1013858
11:00+11сз4658100 0.0 10111032
14:00+17ссз464216 0.0 10091606
17:00+19сз46344 0.0 10071858
20:00+15ссз265330 0.0 1008187
18 июня, пт
пт1823:00+10юз227493 0.0 100815
02:00+9юз227716 0.0 100817
05:00+9юз22767 0.0 100720
08:00+16зсз354879 0.0 1004545
11:00+20сз474393 0.0 10031400
14:00+22зсз5103686 0.0 10012387
17:00+21ссз5104069 0.0 10002340
20:00+18ссз37535 0.0 1001383